Regional Weather Roundup
Issued by NWS Cleveland, OH

Home | Current Version | Previous Version | Text Only | Print | Product List | Glossary Off
Versions: 1 2 3 4 5 6 7 8 9 10 11 12 13 14 15 16 17 18 19 20 21 22 23 24 25 26 27 28 29 30 31 32 33 34 35 36 37 38 39 40 41 42 43 44 45 46 47 48 49 50

000
ASUS41 KCLE 051700
RWRCLE
OHIO REGIONAL WEATHER ROUNDUP
NATIONAL WEATHER SERVICE WILMINGTON, OH
100 PM EDT TUE MAY 05 2015

NOTE: "FAIR" INDICATES FEW OR NO CLOUDS BELOW 12,000 FEET WITH NO
SIGNIFICANT WEATHER AND/OR OBSTRUCTIONS TO VISIBILITY.

OHZ001>008-015>018-024>027-034-035-043-044-051800-
   NORTHWEST OHIO

CITY           SKY/WX    TMP DP  RH WIND       PRES   REMARKS
DEFIANCE       CLOUDY    64  60  87 NE5       30.25S FOG
FINDLAY        PTSUNNY   69  62  78 SE6       30.24F
TOLEDO EXPRESS CLOUDY    56  51  84 NE3       30.27R
TOLEDO EXEC    CLOUDY    56  49  77 VRB3      30.28F
LIMA           MOSUNNY   72  61  68 MISG      30.25F
$$

OHZ009>014-019>023-028>033-038-089-051800-
   NORTHEAST OHIO

CITY           SKY/WX    TMP DP  RH WIND       PRES   REMARKS
CLE-HOPKINS    CLOUDY    67  61  81 W6        30.28S FOG
CLE-LAKEFRONT  CLOUDY    55  52  89 CALM      30.26S FOG
CUY CO. ARPT   LGT RAIN  68  64  88 W6        30.27S FOG
LORAIN-ELYRIA  CLOUDY    65  60  84 W6        30.28R HAZE
ASHTABULA      CLOUDY    65  62  90 S7        30.27F FOG
AKRON-CANTON   CLOUDY    68  59  73 W5        30.28S
WOOSTER        NOT AVBL
MANSFIELD      PTSUNNY   69  59  70 W6        30.28S
YOUNGSTOWN     CLOUDY    66  61  84 CALM      30.28F FOG
$$

OHZ042-051>053-060>062-070>072-077>081-051800-
  SOUTHWEST OHIO

CITY           SKY/WX    TMP DP  RH WIND       PRES   REMARKS
CINC-COVINGTON PTSUNNY   80  53  39 SW8       30.26F
CINC-LUNKEN    SUNNY     80  56  43 W9        30.25F
HAMILTON       SUNNY     82  55  39 SW8       30.25F
DAYTON         NOT AVBL
WRIGHT-PAT AFB NOT AVBL
DAYTON GENERAL SUNNY     78  55  44 SW9       30.25F
WILMINGTON     SUNNY     78  54  43 W12       30.26F
$$

OHZ036-037-039>041-045>050-054>059-063>069-073>076-082>088-051800-
  CENTRAL AND SOUTHEAST OHIO

CITY           SKY/WX    TMP DP  RH WIND       PRES   REMARKS
COLUMBUS       MOSUNNY   75  60  59 S6        30.26F
OSU AIRPORT    SUNNY     75  61  61 S10       30.26F
BOLTON FIELD   SUNNY     75  61  60 S3        30.26F
RICKENBACK AFB NOT AVBL
NEWARK         SUNNY     75  61  61 S9        30.26F
MARION         PTSUNNY   71  62  73 SW8       30.27F
LANCASTER      SUNNY     77  61  57 SE7       30.27F
ZANESVILLE     SUNNY     73  59  61 VRB6      30.27F
NEW PHILLY     PTSUNNY   70  62  76 CALM      30.28F
$$



USA.gov is the U.S. government's official web portal to all federal, state and local government web resources and services.